This demonstration page uses our WeatherBlox Daily Observations layout. Learn more.

Left ArrowRight Arrow

Hourly Observations for June 25, 2017

Temp ( °F °C ) Dew Point ( °F °C ) Humidity (%) Winds ( mph kmh ) Pressure ( in mb ) Visibility ( mi km ) Precip ( " mm )
12:15 am 00:15 Clear 57 14.1 42 5.3 56 56 Calm 30.24 1024 10 16.0934 0 0
12:35 am 00:35 Clear 56 13.6 43 6.1 61 61 Calm 30.24 1024 10 16.0934 0 0
12:55 am 00:55 Clear 55 12.6 44 6.4 66 66 Calm 30.24 1024 10 16.0934 0 0
1:15 am 01:15 Clear 55 12.6 43 5.9 64 64 SW 3 6 30.24 1024 10 16.0934 0 0
1:35 am 01:35 Clear 54 12.3 43 5.9 65 65 Calm 30.24 1024 10 16.0934 0 0
1:55 am 01:55 Clear 53 11.5 43 6.2 70 70 Calm 30.3 1026 10 16.0934 0 0
2:15 am 02:15 Clear 51 10.5 44 6.8 78 78 Calm 30.27 1025 10 16.0934 0 0
2:35 am 02:35 Clear 51 10.4 44 6.4 76 76 Calm 30.3 1026 10 16.0934 0 0
2:55 am 02:55 Clear 52 11 43 6.2 73 73 Calm 30.27 1025 10 16.0934 0 0
3:15 am 03:15 Clear 50 9.9 44 6.5 80 80 N 5 7 30.3 1026 10 16.0934 0 0
3:35 am 03:35 Clear 54 12 42 5.7 66 66 Calm 30.27 1025 10 16.0934 0 0
3:55 am 03:55 Clear 51 10.7 42 5.5 71 71 NW 3 6 30.3 1026 10 16.0934 0 0
4:15 am 04:15 Clear 50 10.2 42 5.5 73 73 N 5 7 30.3 1026 10 16.0934 0 0
4:35 am 04:35 Clear 51 10.5 41 5 69 69 Calm 30.3 1026 10 16.0934 0 0
4:55 am 04:55 Mostly Cloudy 50 10.1 42 5.3 72 72 N 3 6 30.33 1027 10 16.0934 0 0
5:15 am 05:15 Mostly Cloudy 50 10.1 42 5.8 75 75 NNE 6 9 30.33 1027 10 16.0934 0 0
5:35 am 05:35 Mostly Cloudy 50 10.2 43 6 75 75 NNE 6 9 30.33 1027 10 16.0934 0 0
5:55 am 05:55 Cloudy 50 10.2 43 6.1 76 76 ENE 6 9 30.33 1027 10 16.0934 0 0
6:15 am 06:15 Cloudy 52 11.1 44 6.5 74 74 NE 5 7 30.36 1028 10 16.0934 0 0
6:35 am 06:35 Cloudy 53 11.5 44 6.5 72 72 NE 7 11 30.36 1028 10 16.0934 0 0
6:55 am 06:55 Cloudy with Light Rain 53 11.5 44 6.6 72 72 ENE 3 6 30.36 1028 10 16.0934 0 0
7:15 am 07:15 Cloudy 53 11.5 46 7.5 77 77 N 6 9 30.36 1028 10 16.0934 0 0
7:35 am 07:35 Cloudy 53 11.8 45 7.1 73 73 E 5 7 30.36 1028 10 16.0934 0 0
7:55 am 07:55 Cloudy with Light Rain 55 12.6 44 6.8 68 68 NE 9 15 30.33 1027 10 16.0934 0 0
8:15 am 08:15 Cloudy 56 13.1 43 6.3 64 64 Calm 30.36 1028 10 16.0934 0 0
8:35 am 08:35 Cloudy 56 13.5 43 6.3 62 62 Calm 30.36 1028 10 16.0934 0 0
8:55 am 08:55 Cloudy 56 13.5 45 7.1 65 65 ENE 3 6 30.36 1028 10 16.0934 0 0
9:15 am 09:15 Cloudy with Light Rain 55 13 46 8 72 72 Calm 30.36 1028 10 16.0934 0 0
9:35 am 09:35 Cloudy 56 13.2 45 7.4 68 68 Calm 30.36 1028 10 16.0934 0.01 0.254
9:55 am 09:55 Cloudy with Light Rain 55 12.6 48 8.7 77 77 N 7 11 30.39 1029 10 16.0934 0.01 0.254
10:15 am 10:15 Cloudy with Rain 54 12.2 48 9 81 81 ESE 3 6 30.39 1029 3 4.82802 0.04 1.016
10:35 am 10:35 Cloudy 55 12.7 49 9.2 79 79 ESE 3 6 30.33 1027 10 16.0934 0.05 1.27
10:55 am 10:55 Cloudy 55 13 48 8.8 76 76 ENE 5 7 30.33 1027 10 16.0934 0.05 1.27
11:15 am 11:15 Cloudy 56 13.2 49 9.2 77 77 NNE 3 6 30.33 1027 10 16.0934 0 0
11:35 am 11:35 Cloudy 57 13.7 48 8.9 73 73 Calm 30.36 1028 10 16.0934 0 0
11:55 am 11:55 Mostly Cloudy 58 14.5 49 9.4 72 72 SE 3 6 30.33 1027 10 16.0934 0 0
12:15 pm 12:15 Mostly Cloudy 58 14.5 49 9.3 71 71 ESE 6 9 30.33 1027 10 16.0934 0 0
12:35 pm 12:35 Cloudy 59 15.1 49 9.7 70 70 E 3 6 30.33 1027 10 16.0934 0 0
12:55 pm 12:55 Mostly Cloudy 61 16.2 49 9.2 63 63 E 7 11 30.3 1026 10 16.0934 0 0
1:15 pm 13:15 Partly Cloudy 63 17.4 47 8.4 56 56 ESE 8 13 30.27 1025 10 16.0934 0 0
1:35 pm 13:35 Sunny 65 18.4 45 7.2 48 48 ESE 8 13 30.27 1025 10 16.0934 0 0
1:55 pm 13:55 Sunny 67 19.5 42 5.6 40 40 ESE 9 15 30.24 1024 10 16.0934 0 0
2:15 pm 14:15 Sunny 68 19.8 40 4.7 37 37 SE 9 15 30.24 1024 10 16.0934 0 0
2:35 pm 14:35 Sunny 69 20.3 40 4.6 36 36 SE 8 13 30.24 1024 10 16.0934 0 0
2:55 pm 14:55 Sunny 70 21.2 40 4.7 34 34 SE 9 15 30.24 1024 10 16.0934 0 0
3:15 pm 15:15 Sunny 70 20.9 43 6.3 39 39 SSE 9 15 30.21 1023 10 16.0934 0 0
3:35 pm 15:35 Sunny 69 20.7 45 7.2 42 42 S 9 15 30.21 1023 10 16.0934 0 0
3:55 pm 15:55 Sunny 70 21.1 41 5.1 35 35 SE 9 15 30.21 1023 10 16.0934 0 0
4:15 pm 16:15 Sunny 70 21.2 40 4.4 33 33 SSE 9 15 30.21 1023 10 16.0934 0 0
4:35 pm 16:35 Sunny 70 21.2 42 5.4 36 36 S 10 17 30.21 1023 10 16.0934 0 0
4:55 pm 16:55 Sunny 70 21.2 45 7 40 40 S 10 17 30.21 1023 10 16.0934 0 0
5:15 pm 17:15 Sunny 70 21.2 43 6.2 38 38 S 7 11 30.18 1022 10 16.0934 0 0
5:35 pm 17:35 Partly Cloudy 70 21.1 45 7 40 40 S 7 11 30.18 1022 10 16.0934 0 0
5:55 pm 17:55 Sunny 70 20.9 45 7.1 41 41 SSE 8 13 30.18 1022 10 16.0934 0 0
6:15 pm 18:15 Sunny 69 20.7 46 7.8 44 44 SSE 8 13 30.18 1022 10 16.0934 0 0
6:35 pm 18:35 Sunny 71 21.5 46 7.8 41 41 S 8 13 30.18 1022 10 16.0934 0 0
6:55 pm 18:55 Sunny 70 21 43 6.3 39 39 S 9 15 30.18 1022 10 16.0934 0 0
7:15 pm 19:15 Sunny 69 20.7 44 6.9 41 41 S 7 11 30.18 1022 10 16.0934 0 0
7:35 pm 19:35 Sunny 69 20.5 44 6.9 41 41 S 6 9 30.18 1022 10 16.0934 0 0
7:55 pm 19:55 Sunny 68 20.1 45 7 43 43 S 7 11 30.18 1022 10 16.0934 0 0
8:15 pm 20:15 Sunny 67 19.7 45 7.1 44 44 S 6 9 30.18 1022 10 16.0934 0 0
8:35 pm 20:35 Partly Cloudy 65 18.2 46 7.8 51 51 S 7 11 30.15 1021 10 16.0934 0 0
8:55 pm 20:55 Partly Cloudy 63 17.1 48 8.9 59 59 SSE 5 7 30.18 1022 10 16.0934 0 0
9:15 pm 21:15 Mostly Cloudy 62 16.5 49 9.2 62 62 S 6 9 30.18 1022 10 16.0934 0 0
9:35 pm 21:35 Partly Cloudy 61 16.3 49 9.6 65 65 SSE 6 9 30.18 1022 10 16.0934 0 0
9:55 pm 21:55 Clear 60 15.7 50 9.8 68 68 S 5 7 30.18 1022 10 16.0934 0 0
10:15 pm 22:15 Clear 60 15.5 50 10.2 71 71 S 3 6 30.18 1022 10 16.0934 0 0
10:35 pm 22:35 Clear 58 14.5 51 10.5 77 77 S 5 7 30.21 1023 10 16.0934 0 0
10:55 pm 22:55 Clear 59 15.2 50 9.9 71 71 S 6 9 30.18 1022 10 16.0934 0 0
11:15 pm 23:15 Clear 59 15.1 50 9.9 71 71 S 5 7 30.18 1022 10 16.0934 0 0
11:35 pm 23:35 Clear 58 14.6 50 9.9 74 74 S 3 6 30.18 1022 10 16.0934 0 0
11:55 pm 23:55 Clear 57 14 50 10 77 77 S 8 13 30.21 1023 10 16.0934 0 0

Powered by AerisWeather